Time,TemperatureF,DewpointF,PressureIn,WindDirection,WindDirectionDegrees,WindSpeedMPH,WindSpeedGustMPH,Humidity,HourlyPrecipIn,Conditions,Clouds,dailyrainin,SolarRadiationWatts/m^2,SoftwareType,DateUTC
2013-03-27 00:02:00,60.0,16.0,-100.00,NW,310,32.0,45.0,18,0.00,,,0.00,0.000000,,2013-03-27 07:02:00,
2013-03-27 00:12:00,60.0,16.0,-100.00,NW,310,32.0,45.0,18,0.00,,,0.00,0.000000,,2013-03-27 07:12:00,
2013-03-27 00:22:00,60.0,16.0,-100.00,NW,310,32.0,45.0,18,0.00,,,0.00,0.000000,,2013-03-27 07:22:00,
2013-03-27 00:53:00,62.0,18.0,-100.00,WNW,296,28.0,42.0,18,0.00,,,0.00,0.000000,,2013-03-27 07:53:00,
2013-03-27 01:02:00,62.0,18.0,-100.00,WNW,296,28.0,42.0,18,0.00,,,0.00,0.000000,,2013-03-27 08:02:00,
2013-03-27 01:12:00,62.0,18.0,-100.00,WNW,296,28.0,42.0,18,0.00,,,0.00,0.000000,,2013-03-27 08:12:00,
2013-03-27 01:22:00,62.0,18.0,-100.00,WNW,296,28.0,42.0,18,0.00,,,0.00,0.000000,,2013-03-27 08:22:00,
2013-03-27 01:52:00,59.0,19.0,-100.00,WNW,296,28.0,42.0,21,0.00,,,0.00,0.000000,,2013-03-27 08:52:00,
2013-03-27 02:01:00,59.0,19.0,-100.00,WNW,296,28.0,42.0,21,0.00,,,0.00,0.000000,,2013-03-27 09:01:00,
2013-03-27 02:11:00,59.0,19.0,-100.00,WNW,296,28.0,42.0,21,0.00,,,0.00,0.000000,,2013-03-27 09:11:00,
2013-03-27 02:22:00,59.0,19.0,-100.00,WNW,296,28.0,42.0,21,0.00,,,0.00,0.000000,,2013-03-27 09:22:00,
2013-03-27 02:52:00,59.0,22.0,-100.00,WNW,300,28.0,40.0,24,0.00,,,0.00,0.000000,,2013-03-27 09:52:00,
2013-03-27 03:02:00,59.0,22.0,-100.00,WNW,300,28.0,40.0,24,0.00,,,0.00,0.000000,,2013-03-27 10:02:00,
2013-03-27 03:12:00,59.0,22.0,-100.00,WNW,300,28.0,40.0,24,0.00,,,0.00,0.000000,,2013-03-27 10:12:00,
2013-03-27 03:22:00,59.0,22.0,-100.00,WNW,300,28.0,40.0,24,0.00,,,0.00,0.000000,,2013-03-27 10:22:00,
2013-03-27 03:53:00,58.0,21.0,-100.00,WNW,298,21.0,35.0,24,0.00,,,0.00,0.000000,,2013-03-27 10:53:00,
2013-03-27 04:02:00,58.0,21.0,-100.00,WNW,298,21.0,35.0,24,0.00,,,0.00,0.000000,,2013-03-27 11:02:00,
2013-03-27 04:12:00,58.0,21.0,-100.00,WNW,298,21.0,35.0,24,0.00,,,0.00,0.000000,,2013-03-27 11:12:00,
2013-03-27 04:22:00,58.0,21.0,-100.00,WNW,298,21.0,35.0,24,0.00,,,0.00,0.000000,,2013-03-27 11:22:00,
2013-03-27 04:52:00,58.0,20.0,-100.00,NW,312,21.0,29.0,23,0.00,,,0.00,0.000000,,2013-03-27 11:52:00,
2013-03-27 05:02:00,58.0,20.0,-100.00,NW,312,21.0,29.0,23,0.00,,,0.00,0.000000,,2013-03-27 12:02:00,
2013-03-27 05:12:00,58.0,20.0,-100.00,NW,312,21.0,29.0,23,0.00,,,0.00,0.000000,,2013-03-27 12:12:00,
2013-03-27 05:22:00,58.0,20.0,-100.00,NW,312,21.0,29.0,23,0.00,,,0.00,0.000000,,2013-03-27 12:22:00,
2013-03-27 05:52:00,59.0,21.0,-100.00,NW,309,17.0,28.0,23,0.00,,,0.00,0.000000,,2013-03-27 12:52:00,
2013-03-27 06:02:00,59.0,21.0,-100.00,NW,309,17.0,28.0,23,0.00,,,0.00,0.000000,,2013-03-27 13:02:00,
2013-03-27 06:12:00,59.0,21.0,-100.00,NW,309,17.0,28.0,23,0.00,,,0.00,0.000000,,2013-03-27 13:12:00,
2013-03-27 06:22:00,59.0,21.0,-100.00,NW,309,17.0,28.0,23,0.00,,,0.00,0.000000,,2013-03-27 13:22:00,
2013-03-27 06:53:00,58.0,23.0,-100.00,NW,304,14.0,23.0,26,0.00,,,0.00,0.000000,,2013-03-27 13:53:00,
2013-03-27 07:02:00,58.0,23.0,-100.00,NW,304,14.0,23.0,26,0.00,,,0.00,0.000000,,2013-03-27 14:02:00,
2013-03-27 07:11:00,58.0,23.0,-100.00,NW,304,14.0,23.0,26,0.00,,,0.00,0.000000,,2013-03-27 14:11:00,
2013-03-27 07:22:00,58.0,23.0,-100.00,NW,304,14.0,23.0,26,0.00,,,0.00,0.000000,,2013-03-27 14:22:00,
2013-03-27 07:52:00,56.0,21.0,-100.00,WNW,302,8.0,26.0,25,0.00,,,0.00,14.000000,,2013-03-27 14:52:00,
2013-03-27 08:02:00,56.0,21.0,-100.00,WNW,302,8.0,26.0,25,0.00,,,0.00,14.000000,,2013-03-27 15:02:00,
2013-03-27 08:11:00,56.0,21.0,-100.00,WNW,302,8.0,26.0,25,0.00,,,0.00,14.000000,,2013-03-27 15:11:00,
2013-03-27 08:22:00,56.0,21.0,-100.00,WNW,302,8.0,26.0,25,0.00,,,0.00,14.000000,,2013-03-27 15:22:00,
2013-03-27 08:52:00,55.0,22.0,-100.00,SSE,167,1.0,16.0,27,0.00,,,0.00,103.000000,,2013-03-27 15:52:00,
2013-03-27 09:02:00,55.0,22.0,-100.00,SSE,167,1.0,16.0,27,0.00,,,0.00,103.000000,,2013-03-27 16:02:00,
2013-03-27 09:12:00,55.0,22.0,-100.00,SSE,167,1.0,16.0,27,0.00,,,0.00,103.000000,,2013-03-27 16:12:00,
2013-03-27 09:22:00,55.0,22.0,-100.00,SSE,167,1.0,16.0,27,0.00,,,0.00,103.000000,,2013-03-27 16:22:00,
2013-03-27 11:02:00,63.0,24.0,-100.00,NE,47,5.0,9.0,22,-99.99,,,0.00,624.000000,,2013-03-27 18:02:00,
2013-03-27 11:12:00,63.0,24.0,-100.00,NE,47,5.0,9.0,22,-99.99,,,0.00,624.000000,,2013-03-27 18:12:00,
2013-03-27 11:22:00,63.0,24.0,-100.00,NE,47,5.0,9.0,22,-99.99,,,0.00,624.000000,,2013-03-27 18:22:00,
2013-03-27 11:53:00,69.0,24.0,-100.00,South,189,3.0,11.0,18,0.00,,,0.00,926.000000,,2013-03-27 18:53:00,
2013-03-27 12:02:00,69.0,24.0,-100.00,South,189,3.0,11.0,18,0.00,,,0.00,926.000000,,2013-03-27 19:02:00,
2013-03-27 12:12:00,69.0,24.0,-100.00,South,189,3.0,11.0,18,0.00,,,0.00,926.000000,,2013-03-27 19:12:00,
2013-03-27 12:21:00,69.0,24.0,-100.00,South,189,3.0,11.0,18,0.00,,,0.00,926.000000,,2013-03-27 19:21:00,
2013-03-27 12:52:00,68.0,23.0,-100.00,SSE,164,9.0,16.0,18,0.00,,,0.00,1114.000000,,2013-03-27 19:52:00,
2013-03-27 13:02:00,68.0,23.0,-100.00,SSE,164,9.0,16.0,18,0.00,,,0.00,1114.000000,,2013-03-27 20:02:00,
2013-03-27 13:12:00,68.0,23.0,-100.00,SSE,164,9.0,16.0,18,0.00,,,0.00,1114.000000,,2013-03-27 20:12:00,
2013-03-27 13:22:00,68.0,23.0,-100.00,SSE,164,9.0,16.0,18,0.00,,,0.00,1114.000000,,2013-03-27 20:22:00,
2013-03-27 13:52:00,70.0,26.0,-100.00,SSE,162,12.0,22.0,19,0.00,,,0.00,1161.000000,,2013-03-27 20:52:00,
2013-03-27 14:02:00,70.0,26.0,-100.00,SSE,162,12.0,22.0,19,0.00,,,0.00,1161.000000,,2013-03-27 21:02:00,
2013-03-27 14:12:00,70.0,26.0,-100.00,SSE,162,12.0,22.0,19,0.00,,,0.00,1161.000000,,2013-03-27 21:12:00,
2013-03-27 14:22:00,70.0,26.0,-100.00,SSE,162,12.0,22.0,19,0.00,,,0.00,1161.000000,,2013-03-27 21:22:00,
2013-03-27 14:52:00,70.0,22.0,-100.00,South,173,15.0,30.0,16,0.00,,,0.00,1115.000000,,2013-03-27 21:52:00,
2013-03-27 15:02:00,70.0,22.0,-100.00,South,173,15.0,30.0,16,0.00,,,0.00,1115.000000,,2013-03-27 22:02:00,
2013-03-27 15:12:00,70.0,22.0,-100.00,South,173,15.0,30.0,16,0.00,,,0.00,1115.000000,,2013-03-27 22:12:00,
2013-03-27 15:23:00,70.0,22.0,-100.00,South,173,15.0,30.0,16,0.00,,,0.00,1115.000000,,2013-03-27 22:23:00,
2013-03-27 15:52:00,69.0,29.0,-100.00,SSW,201,18.0,29.0,22,0.00,,,0.00,1011.000000,,2013-03-27 22:52:00,
2013-03-27 16:02:00,69.0,29.0,-100.00,SSW,201,18.0,29.0,22,0.00,,,0.00,1011.000000,,2013-03-27 23:02:00,
2013-03-27 16:12:00,69.0,29.0,-100.00,SSW,201,18.0,29.0,22,0.00,,,0.00,1011.000000,,2013-03-27 23:12:00,
2013-03-27 16:22:00,69.0,29.0,-100.00,SSW,201,18.0,29.0,22,0.00,,,0.00,1011.000000,,2013-03-27 23:22:00,
2013-03-27 16:52:00,68.0,29.0,-100.00,SSW,208,15.0,31.0,23,0.00,,,0.00,733.000000,,2013-03-27 23:52:00,
2013-03-27 17:02:00,68.0,29.0,-100.00,SSW,208,15.0,31.0,23,0.00,,,0.00,733.000000,,2013-03-28 00:02:00,
2013-03-27 17:12:00,68.0,29.0,-100.00,SSW,208,15.0,31.0,23,0.00,,,0.00,733.000000,,2013-03-28 00:12:00,
2013-03-27 17:22:00,68.0,29.0,-100.00,SSW,208,15.0,31.0,23,0.00,,,0.00,733.000000,,2013-03-28 00:22:00,